Location: *
(24.1167°N, 32.8667°E)
Time: 08:01:28
(UTC+00:00)

Daily predictions for brighter satellites

Satellite Brightness Start Highest point End
(mag) Time Altitude Azimuth Time Altitude Azimuth Time Altitude Azimuth
Helios 1A Rocket 4.3 17:01:21 10° SE 17:04:30 22° ENE 17:07:39 10° NNE
Delta 7925 Rocket 4.3 16:58:37 10° WSW 17:04:46 64° SSE 17:12:48 10° E
GPS 2-17 Rocket1 4.3 17:02:54 10° SW 17:06:24 22° SSE 17:09:51 10° ESE
Cosmos 2151 Rocket 3.8 17:03:32 10° N 17:07:47 50° E 17:12:03 10° SSE
COSMOS 2428 4.3 17:05:17 10° SE 17:08:09 14° E 17:11:01 10° ENE
SAR-Lupe-1 4.1 17:04:43 10° NNE 17:08:13 55° E 17:11:43 10° S
BREEZE M DEB (TANK) 4.5 17:08:56 10° SE 17:10:26 13° ESE 17:12:31 10° E
Cosmos 2237 4.2 17:06:02 10° SSW 17:11:43 88° ESE 17:17:26 10° NNE
Cosmos 1190 Rocket 4.0 17:07:44 10° N 17:13:03 76° ENE 17:18:20 10° SSE
GPS 2-18 Rocket1 3.6 17:09:40 10° WSW 17:13:17 42° S 17:16:59 10° E
NATO 3D Rocket 3.8 17:08:10 10° W 17:13:38 50° SSW 17:18:05 11° ESE
Cosmos 1821 Rocket 4.4 17:10:14 10° NNW 17:16:17 65° W 17:22:16 10° S
SL-08 RB Rocket 4.2 17:13:28 10° S 17:17:54 63° W 17:22:22 10° NNW
Cosmos 1400 Rocket 3.0 17:16:59 10° NNW 17:20:48 70° W 17:24:40 10° S
Cosmos 2263 Rocket 2.2 17:16:57 10° NNW 17:22:39 73° ENE 17:28:18 10° SSE
X-37B 0.9 17:19:57 10° SW 17:23:06 70° NW 17:26:15 10° NE
Yuri Rocket 4.0 17:19:58 10° W 17:24:45 64° N 17:31:13 10° ENE
Cosmos 1766 3.8 17:20:57 10° NNW 17:24:46 59° W 17:28:36 10° S
Cosmos 1689 Rocket 3.8 17:22:27 10° N 17:25:05 35° WNW 17:27:41 10° SW
YAOGAN 1 4.3 17:21:46 10° SSW 17:25:39 33° W 17:29:33 10° NW
MetOp-A 4.2 17:22:27 10° SSE 17:27:45 67° ENE 17:33:03 10° N
CSL-04 Debris 4.3 17:23:29 10° S 17:28:51 82° WSW 17:34:16 10° NNW
Meteor 2-20 4.4 17:24:27 10° S 17:30:29 68° E 17:36:31 10° NNE
ERS-2 2.0 17:28:24 10° NNE 17:32:02 71° ESE 17:35:39 10° S
USA 186 1.5 17:29:54 13° SSE 17:32:17 61° E 17:35:16 10° N
Ariane Rocket 4.2 17:29:10 14° ESE 17:32:20 24° ENE 17:36:23 10° NNE
Meteor 1-21 4.4 17:28:14 10° S 17:33:53 76° W 17:39:29 10° N
Cosmos 1470 3.1 17:30:29 10° N 17:34:16 45° E 17:37:15 15° SSE
Cosmos 1140 Rocket 4.5 17:31:01 10° NNW 17:36:00 46° WSW 17:40:57 10° S
Okean 2 4.3 17:32:05 10° SSW 17:36:03 50° W 17:39:59 10° N
ATLAS 3B R/B 2.6 17:35:29 10° SSW 17:42:00 88° WNW 17:48:36 10° NNE
Cosmos 2333 4.2 17:36:29 10° S 17:42:10 66° ESE 17:47:51 10° NNE
Cosmos 1934 Rocket 4.2 17:36:52 10° N 17:43:01 76° W 17:49:16 10° S
Cosmos 1954 Rocket 4.0 17:37:54 10° NNW 17:43:13 89° ENE 17:48:07 12° SSE
GPS 2-04 Rocket1 4.4 17:41:36 10° S 17:43:33 17° SSE 17:43:33 17° SSE
Meteor 2-10 4.1 17:40:13 10° N 17:45:25 86° W 17:50:47 10° S
Cosmos 2219 Rocket 2.5 17:40:19 10° S 17:45:40 45° ESE 17:51:03 10° NNE
Uosat 12 SS-18 rocket 4.0 17:42:49 10° S 17:46:55 53° ESE 17:51:11 10° NE
Cosmos 1707 3.4 17:43:16 10° SSW 17:47:03 55° W 17:50:51 10° N
Cosmos 676 Rocket 4.1 17:42:10 10° NNW 17:47:30 86° WSW 17:52:17 13° SSE
Okean 1 Rocket 3.0 17:43:10 10° N 17:47:33 69° E 17:51:02 16° SSE
USA 234 3.3 17:42:27 16° SE 17:47:51 86° NE 17:54:26 10° NW
Cosmos 1025 Rocket 4.2 17:47:23 22° ESE 17:48:24 24° E 17:51:56 10° NE
SJ-6B 2.8 17:50:46 17° SSE 17:53:53 86° E 17:57:56 10° N
Cosmos 1110 Rocket 4.3 17:50:49 10° SSW 17:55:55 67° WNW 18:01:05 10° N
Cosmos 2333 Rocket 2.1 17:53:19 10° SSW 17:59:03 77° ESE 18:04:47 10° NNE
Resurs 1-3 3.8 17:59:47 30° SE 18:01:39 51° ENE 18:05:53 10° N
Cosmos 1726 2.5 17:59:54 10° NNW 18:03:29 62° W 18:05:52 20° S
IRS-1A Rocket 4.4 18:00:50 23° SSE 18:04:29 62° ENE 18:10:11 10° N
Cosmos 1674 2.7 18:08:47 21° SSW 18:11:07 76° W 18:14:49 10° N
Cosmos 2237 Rocket 4.1 18:13:52 14° ENE 18:13:52 14° ENE 18:15:02 10° ENE
Cosmos 2360 Rocket 4.1 18:07:03 10° SW 18:11:58 30° WNW 18:16:53 10° N
Chunghua 1 4.4 18:09:43 10° SW 18:13:28 63° SSE 18:13:51 58° ESE
Cosmos 1727 Rocket 4.5 18:11:02 10° SSW 18:17:15 61° W 18:23:26 10° N
EPKM 1.9 18:16:22 10° WSW 18:18:43 66° SSE 18:18:43 66° SSE
KORONAS-FOTON 4.3 18:16:37 18° SSW 18:19:13 56° W 18:22:56 10° N
ASTRO E2 4.3 18:17:00 10° WNW 18:20:29 29° N 18:22:22 20° NE
Landsat 7 4.4 18:20:10 37° E 18:20:40 38° ENE 18:25:03 10° N
Cosmos 1315 Rocket 4.1 18:18:15 10° NNW 18:22:04 39° W 18:24:33 19° SSW
Cosmos 1975 Rocket 4.0 18:20:57 10° SSW 18:25:07 46° W 18:29:20 10° N
OBJECT-B 3.2 18:23:43 13° SW 18:25:32 20° W 18:27:58 10° NW
Cosmos 1340 3.0 18:32:51 53° NNE 18:32:51 53° NNE 18:35:52 10° NNE
Fermi 4.4 18:29:09 10° W 18:32:41 44° SW 18:32:41 44° SW
NOSS 0 Rocket 4.1 18:33:39 46° SE 18:34:29 49° ESE 18:40:25 10° NNE
Lacrosse 5 3.0 18:30:51 10° NW 18:35:25 34° WSW 18:37:06 27° SSW
SL-14 R/B 3.7 18:38:37 52° NE 18:38:37 52° NE 18:41:49 10° N
Meteor 1-24 Rocket 4.4 18:39:13 34° ENE 18:39:13 34° ENE 18:43:11 10° NNE
USA 81 4.4 18:33:22 10° NNW 18:38:33 60° W 18:41:05 29° SSW
DELTA 2 R/B (1) 3.4 18:37:37 10° SW 18:43:09 74° SE 18:44:32 51° ENE
MetOp-B 4.2 18:43:02 54° E 18:43:22 55° ENE 18:48:34 10° N
Cosmos 1459 Rocket 3.9 18:37:40 10° N 18:43:42 67° E 18:44:50 56° SE
Cosmos 1626 3.0 18:45:20 44° W 18:45:31 45° W 18:49:04 10° N
Cosmos 1850 Rocket 4.2 18:40:40 10° NNW 18:45:50 64° WSW 18:47:04 48° SSW
IGS 5A 3.5 18:46:45 76° NW 18:46:45 76° NW 18:50:39 10° NNW
ATLAS CENTAUR R/B 2.9 18:45:28 10° N 18:48:47 30° NE 18:48:47 30° NE
Cosmos 1844 Rocket 2.5 18:44:51 10° NNW 18:50:32 81° ENE 18:51:09 70° SE
OAO 1 4.4 18:45:05 10° WSW 18:50:34 88° SSE 18:51:31 62° ENE
COSMOS 2428 3.5 18:46:21 10° SW 18:51:53 50° WNW 18:57:27 10° N
Meteor 1-16 Rocket 4.1 18:48:04 10° N 18:53:23 76° W 18:54:11 62° SSW
Resurs 01 Rocket 1.9 18:54:51 62° W 18:54:51 62° W 18:59:10 10° NNW
Cosmos 1802 Rocket 3.9 18:48:34 10° N 18:54:53 67° E 18:55:35 62° ESE
Cosmos 1461 3.6 18:52:01 10° NNW 18:55:09 48° WNW 18:55:09 48° WNW
Cosmos 2278 Rocket 4.5 18:55:53 10° NE 18:56:16 10° NE 18:56:16 10° NE
SPOT 1/Viking Rocket 3.6 19:06:59 70° NNE 19:06:59 70° NNE 19:11:35 10° N
Cosmos 1953 3.6 19:02:59 10° NNW 19:06:15 38° WNW 19:06:15 38° WNW
H-2A R/B 2.4 18:53:08 10° WSW 19:06:43 62° SSW 19:06:43 62° SSW
Cosmos 2123 Rocket 4.5 19:15:19 40° SW 19:17:19 56° W 19:23:31 10° N
Cosmos 1864 Rocket 4.4 19:11:39 10° N 19:17:20 72° NE 19:17:20 72° NE
ATLAS 2A CENTAUR R/B 2.7 18:59:33 10° W 19:18:17 84° NNW 19:19:23 64° ENE
Yuri Rocket 4.4 19:16:43 10° WNW 19:22:37 65° N 19:24:11 53° ENE
Cosmos 1980 3.9 19:23:37 65° N 19:23:37 65° N 19:28:30 10° NNE
ARIANE 5 R/B 4.3 19:32:53 30° N 19:32:53 30° N 19:35:10 10° N
Terra 3.8 19:33:16 22° NNE 19:33:16 22° NNE 19:35:11 10° N
Cosmos 2061 Rocket 4.3 19:35:35 10° NNW 19:41:39 61° W 19:41:39 61° W
SPOT 5 4.5 19:55:00 33° NNW 19:55:00 33° NNW 19:57:38 10° NNW
Cosmos 2237 Rocket 3.3 19:55:36 39° NW 19:55:36 39° NW 20:00:20 10° N
SL-16 R/B 4.3 19:59:15 18° NNE 19:59:15 18° NNE 20:00:37 10° NNE
USA 215 4.3 20:05:47 10° NE 20:09:20 36° NE 20:09:20 36° NE
Cosmos 2278 Rocket 4.1 20:35:44 10° NNW 20:38:06 26° NNW 20:38:06 26° NNW
SL-16 R/B 3.2 23:34:48 50° NNE 23:34:48 50° NNE 23:39:38 10° N
Resurs 1-4 Rocket 3.9 23:42:15 10° N 23:44:38 25° NNW 23:44:38 25° NNW
CZ-4C R/B 3.8 23:50:46 24° N 23:50:46 24° N 23:53:09 10° NNE
SeaSat 1 4.5 23:46:19 10° NE 23:48:54 21° E 23:48:54 21° E
ADEOS II 3.3 23:45:50 10° NNE 23:49:02 38° NNE 23:49:02 38° NNE
Cosmos 1833 Rocket 3.6 23:54:25 45° NE 23:54:25 45° NE 23:58:30 10° NNE
